Rawlins, WY

10:48 AM MDT on April 28, 2017 (GMT -0600)
Rawlins Municipal

Weather History for KRWL - July, 2013

Change the Weather History Date:

Thursday, July 18, 2013

  Actual Average Record
Temperature  
Mean Temperature 74 °F 68 °F  
Max Temperature 88 °F 84 °F 95 °F (2006)
Min Temperature 59 °F 51 °F 33 °F (1958)
Degree Days  
Heating Degree Days 0 1  
Month to date heating degree days 0 25  
Since 1 June heating degree days 101 215  
Since 1 July heating degree days 0 25  
Cooling Degree Days 9 4  
Month to date cooling degree days 94 50  
Year to date cooling degree days 142 69  
Since 1 June cooling degree days 141 69  
Growing Degree Days 24 (Base 50)    
Moisture  
Dew Point 44 °F    
Average Humidity 38    
Maximum Humidity 60    
Minimum Humidity 16    
Precipitation  
Precipitation 0.00 in 0.02 in 1.12 in (2004)
Month to date precipitation 0.68 0.45  
Year to date precipitation 2.78 5.40  
Sea Level Pressure  
Sea Level Pressure 29.97 in    
Wind  
Wind Speed 8 mph (WNW)    
Max Wind Speed 21 mph    
Max Gust Speed 24 mph    
Visibility 10 miles    
Events      
T = Trace of Precipitation, MM = Missing Value Source: NWS Daily Summary

Daily Weather History Graph

Daily Weather History Graph

Search for Another Location

Airport or City:

Trip Planner

Search our weather history database for the weather conditions in past years. The results will help you decide how hot, cold, wet, or windy it might be!

Date:

Astronomy

Jul. 18, 2013 Rise Set
Actual Time 5:49 AM MDT 8:39 PM MDT
Civil Twilight 5:17 AM MDT 9:12 PM MDT
Nautical Twilight 4:35 AM MDT 9:53 PM MDT
Astronomical Twilight 3:47 AM MDT 10:41 PM MDT
Moon 4:39 PM MDT (7/18) 1:43 AM MDT (7/18)
Length of Visible Light 15h 55m
Length of Day
14h 49m
Waxing Gibbous, 78% of the Moon is Illuminated
Jul 18
Waxing Gibbous
Jul 22
Full
Jul 29
Last Quarter
Aug 6
New
Aug 14
First Quarter

Hourly Weather History & Observations

Time (MDT) Temp. Dew Point Humidity Pressure Visibility Wind Dir Wind Speed Gust Speed Precip Events Conditions
12:53 AM 68.0 °F 45.0 °F 43% 29.97 in 10.0 mi WNW 8.1 mph - N/A   Clear
1:53 AM 64.9 °F 46.0 °F 50% 29.97 in 10.0 mi WNW 5.8 mph - N/A   Scattered Clouds
2:53 AM 66.0 °F 46.9 °F 50% 29.99 in 10.0 mi NW 9.2 mph - N/A   Mostly Cloudy
3:53 AM 64.9 °F 48.0 °F 54% 29.98 in 10.0 mi WSW 5.8 mph - N/A   Clear
4:53 AM 63.0 °F 48.0 °F 58% 29.99 in 10.0 mi WSW 4.6 mph - N/A   Clear
5:53 AM 62.1 °F 48.9 °F 62% 29.99 in 10.0 mi Calm Calm - N/A   Clear
6:53 AM 63.0 °F 48.0 °F 58% 30.00 in 10.0 mi West 4.6 mph - N/A   Scattered Clouds
7:53 AM 72.0 °F 48.0 °F 43% 29.99 in 10.0 mi SW 10.4 mph - N/A   Clear
8:53 AM 71.1 °F 48.0 °F 44% 30.04 in 10.0 mi West 11.5 mph - N/A   Partly Cloudy
9:53 AM 73.0 °F 48.0 °F 41% 30.02 in 10.0 mi WSW 9.2 mph - N/A   Partly Cloudy
10:53 AM 79.0 °F 46.9 °F 32% 30.00 in 10.0 mi WSW 10.4 mph - N/A   Partly Cloudy
11:53 AM 79.0 °F 46.0 °F 31% 30.00 in 10.0 mi WNW 11.5 mph - N/A   Mostly Cloudy
12:53 PM 81.0 °F 45.0 °F 28% 29.99 in 10.0 mi West 9.2 mph - N/A   Mostly Cloudy
1:53 PM 82.9 °F 44.1 °F 25% 29.97 in 10.0 mi NNW 9.2 mph 18.4 mph N/A   Scattered Clouds
2:53 PM 82.9 °F 39.0 °F 21% 29.96 in 10.0 mi NNW 18.4 mph 23.0 mph N/A   Mostly Cloudy
3:53 PM 87.1 °F 36.0 °F 16% 29.93 in 10.0 mi NNW 11.5 mph 17.3 mph N/A   Partly Cloudy
4:53 PM 86.0 °F 37.0 °F 18% 29.91 in 10.0 mi North 10.4 mph 17.3 mph N/A   Partly Cloudy
5:53 PM 86.0 °F 36.0 °F 17% 29.90 in 10.0 mi NNW 4.6 mph 19.6 mph N/A   Clear
6:53 PM 84.9 °F 37.9 °F 19% 29.90 in 10.0 mi East 6.9 mph - N/A   Clear
7:53 PM 80.1 °F 39.0 °F 23% 29.89 in 10.0 mi East 6.9 mph - N/A   Clear
8:53 PM 73.9 °F 39.0 °F 28% 29.92 in 10.0 mi East 4.6 mph - N/A   Clear
9:53 PM 72.0 °F 46.0 °F 40% 29.95 in 10.0 mi ESE 11.5 mph - N/A   Clear
10:53 PM 68.0 °F 48.0 °F 49% 29.97 in 10.0 mi ESE 8.1 mph - N/A   Clear
11:53 PM 66.9 °F 48.9 °F 52% 29.97 in 10.0 mi Variable 6.9 mph - N/A   Clear